timestamp,wind_dir_avg,wind_spd_avg,wind_spd_max_dir,wind_spd_gust,battery_voltage,lat,long
2021-07-24 00:04:01+00:00,218.0,7.1,222.0,7.68,12.89,47.59359,-54.27349
2021-07-24 00:14:01+00:00,216.0,7.4,224.0,8.29,12.65,47.59359,-54.27349
2021-07-24 00:24:01+00:00,211.0,6.56,214.0,7.1,12.65,47.59359,-54.27349
2021-07-24 00:34:01+00:00,210.0,5.38,212.0,5.94,12.65,47.59359,-54.27349
2021-07-24 00:44:01+00:00,215.0,5.26,215.0,6.26,12.65,47.59359,-54.27349
2021-07-24 00:54:01+00:00,218.0,4.9,218.0,5.53,12.65,47.59359,-54.27349
2021-07-24 01:04:01+00:00,221.0,4.94,221.0,5.75,12.65,47.59359,-54.27349
2021-07-24 01:14:01+00:00,214.0,3.78,215.0,4.39,12.65,47.59359,-54.27349
2021-07-24 01:24:01+00:00,221.0,3.06,230.0,4.03,12.65,47.59359,-54.27349
2021-07-24 01:34:01+00:00,223.0,3.67,219.0,4.25,12.65,47.59359,-54.27349
2021-07-24 01:44:01+00:00,223.0,3.51,222.0,4.1,12.65,47.59359,-54.27349
2021-07-24 01:54:01+00:00,223.0,3.21,224.0,4.5,12.65,47.59359,-54.27349
2021-07-24 02:04:01+00:00,218.0,3.15,221.0,3.78,12.65,47.59359,-54.27349
2021-07-24 02:14:00+00:00,201.0,3.81,195.0,4.35,12.65,47.59359,-54.27349
2021-07-24 02:24:00+00:00,229.0,4.15,248.0,5.35,12.65,47.59359,-54.27349
2021-07-24 02:34:00+00:00,255.0,6.1,255.0,6.52,12.65,47.59359,-54.27349
2021-07-24 02:44:00+00:00,264.0,5.1,268.0,5.54,12.65,47.59359,-54.27349
2021-07-24 02:54:00+00:00,262.0,4.71,266.0,5.33,12.65,47.59359,-54.27349
2021-07-24 03:04:00+00:00,270.0,3.56,271.0,4.08,12.65,47.59359,-54.27349
2021-07-24 03:14:00+00:00,264.0,4.05,265.0,4.58,12.65,47.59359,-54.27349
2021-07-24 03:24:00+00:00,234.0,2.95,230.0,3.47,12.65,47.59359,-54.27349
2021-07-24 03:34:00+00:00,236.0,4.15,238.0,4.5,12.65,47.59359,-54.27349
2021-07-24 03:44:00+00:00,247.0,4.53,254.0,6.27,12.65,47.59359,-54.27349
2021-07-24 03:54:00+00:00,249.0,4.78,261.0,5.34,12.65,47.59359,-54.27349
2021-07-24 04:04:00+00:00,259.0,4.88,256.0,5.25,12.65,47.59359,-54.27349
2021-07-24 04:14:01+00:00,258.0,4.54,257.0,5.49,12.57,47.59359,-54.27349
2021-07-24 04:24:01+00:00,249.0,5.0,250.0,5.34,12.57,47.59359,-54.27349
2021-07-24 04:34:01+00:00,253.0,4.91,249.0,5.72,12.57,47.59359,-54.27349
2021-07-24 04:44:01+00:00,265.0,5.33,266.0,5.85,12.57,47.59359,-54.27349
2021-07-24 04:54:01+00:00,234.0,3.9,238.0,4.53,12.57,47.59359,-54.27349
2021-07-24 05:04:01+00:00,241.0,5.01,249.0,5.62,12.57,47.59359,-54.27349
2021-07-24 05:14:01+00:00,239.0,5.44,238.0,6.26,12.57,47.59359,-54.27349
2021-07-24 05:24:01+00:00,246.0,6.46,256.0,7.36,12.57,47.59359,-54.27349
2021-07-24 05:34:01+00:00,242.0,6.59,238.0,7.57,12.57,47.59359,-54.27349
2021-07-24 05:44:01+00:00,240.0,6.75,244.0,7.16,12.57,47.59359,-54.27349
2021-07-24 05:54:01+00:00,236.0,6.03,235.0,6.91,12.57,47.59359,-54.27349
2021-07-24 06:04:01+00:00,242.0,6.48,240.0,7.41,12.57,47.59359,-54.27349
2021-07-24 06:14:01+00:00,230.0,4.81,233.0,5.37,12.57,47.59359,-54.27349
2021-07-24 06:24:01+00:00,246.0,4.3,245.0,4.84,12.57,47.59359,-54.27349
2021-07-24 06:34:01+00:00,241.0,4.62,245.0,5.12,12.57,47.59359,-54.27349
2021-07-24 06:44:01+00:00,248.0,4.45,243.0,5.15,12.57,47.59359,-54.27349
2021-07-24 06:54:01+00:00,238.0,4.71,233.0,5.23,12.57,47.59359,-54.27349
2021-07-24 07:04:01+00:00,242.0,4.86,240.0,5.28,12.57,47.59359,-54.27349
2021-07-24 07:14:01+00:00,238.0,5.8,245.0,7.31,12.49,47.59359,-54.27349
2021-07-24 07:24:01+00:00,243.0,5.83,240.0,6.31,12.49,47.59359,-54.27349
2021-07-24 07:34:01+00:00,240.0,5.92,242.0,6.62,12.49,47.59359,-54.27349
2021-07-24 07:44:01+00:00,237.0,6.4,237.0,7.04,12.49,47.59359,-54.27349
2021-07-24 07:54:01+00:00,252.0,6.06,252.0,6.99,12.49,47.59359,-54.27349
2021-07-24 08:04:01+00:00,245.0,5.16,240.0,6.03,12.49,47.59359,-54.27349
2021-07-24 08:14:00+00:00,228.0,5.35,230.0,6.1,12.49,47.59359,-54.27349
2021-07-24 08:24:00+00:00,229.0,5.36,226.0,6.15,12.49,47.59359,-54.27349
2021-07-24 08:34:00+00:00,231.0,5.19,236.0,6.24,12.49,47.59359,-54.27349
2021-07-24 08:44:00+00:00,231.0,5.83,232.0,6.75,12.49,47.59359,-54.27349
2021-07-24 08:54:00+00:00,244.0,5.52,242.0,6.37,12.49,47.59359,-54.27349
2021-07-24 09:04:00+00:00,235.0,6.91,232.0,8.06,12.49,47.59359,-54.27349
2021-07-24 09:14:01+00:00,241.0,6.46,244.0,7.23,12.57,47.59359,-54.27349
2021-07-24 09:24:01+00:00,239.0,6.88,240.0,7.83,12.57,47.59359,-54.27349
2021-07-24 09:34:01+00:00,234.0,7.25,231.0,8.96,12.57,47.59359,-54.27349
2021-07-24 09:44:01+00:00,232.0,5.74,233.0,6.69,12.57,47.59359,-54.27349
2021-07-24 09:54:01+00:00,213.0,5.72,214.0,6.51,12.57,47.59359,-54.27349
2021-07-24 10:04:01+00:00,223.0,5.19,220.0,6.1,12.57,47.59359,-54.27349
2021-07-24 10:14:01+00:00,223.0,4.76,225.0,5.91,13.44,47.59359,-54.27349
2021-07-24 10:24:01+00:00,228.0,4.46,229.0,6.04,13.44,47.59359,-54.27349
2021-07-24 10:34:01+00:00,233.0,5.4,234.0,6.78,13.44,47.59359,-54.27349
2021-07-24 10:44:01+00:00,238.0,5.27,240.0,6.35,13.44,47.59359,-54.27349
2021-07-24 10:54:01+00:00,242.0,5.83,249.0,6.36,13.44,47.59359,-54.27349
2021-07-24 11:04:01+00:00,240.0,6.08,239.0,6.74,13.44,47.59359,-54.27349
2021-07-24 11:14:01+00:00,233.0,5.85,232.0,6.59,13.76,47.59359,-54.27349
2021-07-24 11:24:01+00:00,233.0,5.37,239.0,6.3,13.76,47.59359,-54.27349
2021-07-24 11:34:01+00:00,225.0,5.64,226.0,6.49,13.76,47.59359,-54.27349
2021-07-24 11:44:01+00:00,222.0,6.09,220.0,7.03,13.76,47.59359,-54.27349
2021-07-24 11:54:01+00:00,224.0,5.14,217.0,6.34,13.76,47.59359,-54.27349
2021-07-24 12:04:01+00:00,216.0,6.69,213.0,7.87,13.76,47.59359,-54.27349
2021-07-24 12:14:01+00:00,213.0,8.59,216.0,9.48,13.92,47.59359,-54.27349
2021-07-24 12:24:01+00:00,204.0,8.1,201.0,8.8,13.92,47.59359,-54.27349
2021-07-24 12:34:01+00:00,203.0,7.74,205.0,8.86,13.92,47.59359,-54.27349
2021-07-24 12:44:01+00:00,212.0,9.02,210.0,10.03,13.92,47.59359,-54.27349
2021-07-24 12:54:01+00:00,209.0,9.37,203.0,11.1,13.92,47.59359,-54.27349
2021-07-24 13:04:01+00:00,210.0,9.89,211.0,10.98,13.92,47.59359,-54.27349
2021-07-24 13:14:01+00:00,207.0,9.12,203.0,10.29,13.84,47.59359,-54.27349
2021-07-24 13:24:01+00:00,206.0,8.87,202.0,9.56,13.84,47.59359,-54.27349
2021-07-24 13:34:01+00:00,208.0,9.82,211.0,10.79,13.84,47.59359,-54.27349
2021-07-24 13:44:01+00:00,205.0,8.67,207.0,9.54,13.84,47.59359,-54.27349
2021-07-24 13:54:01+00:00,205.0,8.55,209.0,9.71,13.84,47.59359,-54.27349
2021-07-24 14:04:01+00:00,207.0,9.54,208.0,10.41,13.84,47.59359,-54.27349
2021-07-24 14:14:01+00:00,206.0,10.25,204.0,11.24,13.84,47.59359,-54.27349
2021-07-24 14:24:01+00:00,209.0,10.79,210.0,11.58,13.84,47.59359,-54.27349
2021-07-24 14:34:01+00:00,207.0,10.0,209.0,11.1,13.84,47.59359,-54.27349
2021-07-24 14:44:01+00:00,210.0,8.64,209.0,9.55,13.84,47.59359,-54.27349
2021-07-24 14:54:01+00:00,209.0,9.26,213.0,10.12,13.84,47.59359,-54.27349
2021-07-24 15:04:01+00:00,208.0,8.48,210.0,9.36,13.84,47.59359,-54.27349
2021-07-24 15:14:01+00:00,210.0,7.59,214.0,8.87,13.84,47.59359,-54.27349
2021-07-24 15:24:01+00:00,207.0,7.17,211.0,7.94,13.84,47.59359,-54.27349
2021-07-24 15:34:01+00:00,202.0,7.07,210.0,7.85,13.84,47.59359,-54.27349
2021-07-24 15:44:01+00:00,200.0,8.29,199.0,9.4,13.84,47.59359,-54.27349
2021-07-24 15:54:01+00:00,200.0,7.38,207.0,8.25,13.84,47.59359,-54.27349
2021-07-24 16:04:01+00:00,202.0,8.36,200.0,8.92,13.84,47.59359,-54.27349
2021-07-24 16:14:01+00:00,186.0,7.04,189.0,7.8,14.0,47.59359,-54.27349
2021-07-24 16:24:01+00:00,200.0,7.2,202.0,7.78,14.0,47.59359,-54.27349
2021-07-24 16:34:01+00:00,204.0,7.98,204.0,8.4,14.0,47.59359,-54.27349
2021-07-24 16:44:01+00:00,211.0,5.56,210.0,5.89,14.0,47.59359,-54.27349
2021-07-24 16:54:01+00:00,214.0,6.3,213.0,7.06,14.0,47.59359,-54.27349
2021-07-24 17:04:01+00:00,206.0,5.71,205.0,6.56,14.0,47.59359,-54.27349
2021-07-24 17:14:01+00:00,213.0,6.19,209.0,7.22,14.24,47.59359,-54.27349
2021-07-24 17:24:01+00:00,223.0,6.53,226.0,7.62,14.24,47.59359,-54.27349
2021-07-24 17:34:01+00:00,219.0,7.08,215.0,8.08,14.24,47.59359,-54.27349
2021-07-24 17:44:01+00:00,229.0,7.14,230.0,8.43,14.24,47.59359,-54.27349
2021-07-24 17:54:01+00:00,221.0,6.09,217.0,7.08,14.24,47.59359,-54.27349
2021-07-24 18:04:01+00:00,216.0,8.47,220.0,9.72,14.24,47.59359,-54.27349
2021-07-24 18:14:01+00:00,212.0,8.77,209.0,10.21,13.84,47.59359,-54.27349
2021-07-24 18:24:01+00:00,213.0,7.8,212.0,8.6,13.84,47.59359,-54.27349
2021-07-24 18:34:01+00:00,206.0,6.27,209.0,7.03,13.84,47.59359,-54.27349
2021-07-24 18:44:01+00:00,205.0,7.4,206.0,8.15,13.84,47.59359,-54.27349
2021-07-24 18:54:01+00:00,209.0,8.02,211.0,8.66,13.84,47.59359,-54.27349
2021-07-24 19:04:01+00:00,210.0,7.72,210.0,8.66,13.84,47.59359,-54.27349
2021-07-24 19:14:00+00:00,206.0,7.33,205.0,8.11,13.76,47.59359,-54.27349
2021-07-24 19:24:00+00:00,213.0,7.87,215.0,9.11,13.76,47.59359,-54.27349
2021-07-24 19:34:00+00:00,214.0,7.24,213.0,7.99,13.76,47.59359,-54.27349
2021-07-24 19:44:00+00:00,207.0,7.59,208.0,8.4,13.76,47.59359,-54.27349
2021-07-24 19:54:00+00:00,210.0,7.0,214.0,7.88,13.76,47.59359,-54.27349
2021-07-24 20:04:00+00:00,215.0,7.36,211.0,8.54,13.76,47.59359,-54.27349
2021-07-24 20:14:01+00:00,221.0,7.62,223.0,8.8,13.84,47.59359,-54.27349
2021-07-24 20:24:01+00:00,213.0,7.76,212.0,9.29,13.84,47.59359,-54.27349
2021-07-24 20:34:01+00:00,216.0,8.07,215.0,9.05,13.84,47.59359,-54.27349
2021-07-24 20:44:01+00:00,210.0,9.04,210.0,10.01,13.84,47.59359,-54.27349
2021-07-24 20:54:01+00:00,212.0,7.62,212.0,8.6,13.84,47.59359,-54.27349
2021-07-24 21:04:01+00:00,213.0,8.45,210.0,9.91,13.84,47.59359,-54.27349
2021-07-24 21:14:01+00:00,215.0,7.96,212.0,9.5,13.6,47.59359,-54.27349
2021-07-24 21:24:01+00:00,215.0,7.73,225.0,9.03,13.6,47.59359,-54.27349
2021-07-24 21:34:01+00:00,218.0,7.64,221.0,8.43,13.6,47.59359,-54.27349
2021-07-24 21:44:01+00:00,221.0,7.33,224.0,7.97,13.6,47.59359,-54.27349
2021-07-24 21:54:01+00:00,217.0,7.05,219.0,7.7,13.6,47.59359,-54.27349
2021-07-24 22:04:01+00:00,221.0,6.21,218.0,6.95,13.6,47.59359,-54.27349
2021-07-24 22:14:01+00:00,215.0,6.51,211.0,7.17,13.21,47.59359,-54.27349
2021-07-24 22:24:01+00:00,212.0,5.99,217.0,6.75,13.21,47.59359,-54.27349
2021-07-24 22:34:01+00:00,206.0,5.83,209.0,6.36,13.21,47.59359,-54.27349
2021-07-24 22:44:01+00:00,216.0,4.5,213.0,4.97,13.21,47.59359,-54.27349
2021-07-24 22:54:01+00:00,213.0,5.02,217.0,5.42,13.21,47.59359,-54.27349
2021-07-24 23:04:01+00:00,215.0,4.58,220.0,5.0,13.21,47.59359,-54.27349
2021-07-24 23:14:01+00:00,215.0,4.43,218.0,5.25,12.89,47.59359,-54.27349
2021-07-24 23:24:01+00:00,225.0,4.29,224.0,4.98,12.89,47.59359,-54.27349
2021-07-24 23:34:01+00:00,231.0,3.67,228.0,4.39,12.89,47.59359,-54.27349
2021-07-24 23:44:01+00:00,226.0,3.77,227.0,4.07,12.89,47.59359,-54.27349
2021-07-24 23:54:01+00:00,219.0,3.87,221.0,4.27,12.89,47.59359,-54.27349
